This is the latest recevied weather packets stored in our database for station/object S57D-6. If no packets are shown the sender has not sent any weather packets the latest 10 day(s).
| Time | Temp. | Humidity | Pressure | Rain* | Wind** | Luminosity | Snow |
|---|---|---|---|---|---|---|---|
| 1777615300 | 5° C | 80% | 1027.2 hPa | 0 mm | - | - | - |
| 1777615000 | 4.44° C | 81% | 1027.2 hPa | 0 mm | - | - | - |
| 1777614699 | 3.89° C | 82% | 1027.1 hPa | 0 mm | - | - | - |
| 1777614401 | 3.89° C | 83% | 1027.1 hPa | 0 mm | - | - | - |
| 1777614098 | 2.78° C | 84% | 1027.1 hPa | 0 mm | - | - | - |
| 1777613799 | 2.22° C | 85% | 1027 hPa | 0 mm | - | - | - |
| 1777613498 | 2.22° C | 85% | 1027.1 hPa | 0 mm | - | - | - |
| 1777613199 | 1.67° C | 85% | 1027.1 hPa | 0 mm | - | - | - |
| 1777612897 | 1.11° C | 85% | 1027.1 hPa | 0 mm | - | - | - |
| 1777612297 | 0.56° C | 85% | 1027.1 hPa | 0 mm | - | - | - |
| 1777612000 | 0.56° C | 85% | 1027.1 hPa | 0 mm | - | - | - |
| 1777611696 | 0° C | 85% | 1027.1 hPa | 0 mm | - | - | - |
| 1777611397 | 0° C | 85% | 1027 hPa | 0 mm | - | - | - |
| 1777611096 | 0° C | 85% | 1027 hPa | 0 mm | - | - | - |
| 1777610796 | 0° C | 85% | 1027.1 hPa | 0 mm | - | - | - |
| 1777610495 | 0° C | 85% | 1026.9 hPa | 0 mm | - | - | - |
| 1777610196 | 0° C | 84% | 1026.9 hPa | 0 mm | - | - | - |
| 1777609895 | -0.56° C | 84% | 1026.8 hPa | 0 mm | - | - | - |
| 1777609595 | -0.56° C | 84% | 1026.8 hPa | 0 mm | - | - | - |
| 1777609294 | -0.56° C | 84% | 1026.7 hPa | 0 mm | - | - | - |
| 1777608693 | -0.56° C | 84% | 1026.7 hPa | 0 mm | - | - | - |
| 1777608394 | -0.56° C | 84% | 1026.6 hPa | 0 mm | - | - | - |
| 1777608093 | -0.56° C | 84% | 1026.7 hPa | 0 mm | - | - | - |
| 1777607793 | -0.56° C | 84% | 1026.6 hPa | 0 mm | - | - | - |
| 1777607492 | -0.56° C | 84% | 1026.5 hPa | 0 mm | - | - | - |
* Rain latest hour (hover to see other rain measurements)
** Current wind speed in m/s (hover to see current wind gust speed)